Terminal Aerodrome Forecast
Issued by NWS Twin Cities, MN

Home | Current Version | Previous Version | Graphics & Text | Print | Product List | Glossary On
Versions: 1 2 3 4 5 6 7 8 9 10 11 12 13 14 15 16 17 18 19 20 21 22 23 24 25 26 27 28
000
FTUS43 KMPX 180200 AAB
TAFMSP
TAF AMD
KMSP 180219Z 1802/1906 14006KT P6SM SCT007 BKN060 BKN110
     FM180900 17002KT 5SM BR OVC007
     FM181500 21005KT 5SM -SHRA BR OVC012
      TEMPO 1815/1819 2SM +TSRA BKN012CB OVC020
     FM181900 24009KT P6SM -SHRA VCTS OVC050CB=

USA.gov is the U.S. government's official web portal to all federal, state and local government web resources and services.